Temp
23 23 23 23 23 23 23 23 23 23 23 23 23 23 23 23 23 22 22 22 22 22 22 21 21 21 21 21 21 20 20 20 19 17 18 19 19 19 20 20 20 19
23 23 23 23 23 23 23 23 23 23 23 23 23 23 23 23 23 23 22 22 22 22 22 22 22 21 21 21 21 21 20 20 19 18 17 19 19 19 20 20 20 20
23 24 23 23 23 23 23 23 23 23 23 23 23 23 23 23 23 23 23 23 22 22 22 22 22 22 22 22 21 21 21 20 19 18 18 19 19 19 19 19 19 20
24 23 23 23 23 23 23 23 23 23 23 23 23 23 23 23 23 23 23 23 22 22 22 22 22 22 22 22 21 21 21 20 20 19 18 18 19 19 19 19 19 19
24 23 23 23 23 23 23 23 23 23 23 23 23 23 23 23 23 23 23 23 23 22 22 22 22 22 22 22 22 22 21 21 20 19 19 18 19 19 19 19 19 19
24 24 23 23 23 23 23 23 23 23 23 23 23 23 23 23 23 23 23 23 23 23 22 22 22 22 22 22 22 22 21 21 20 20 20 19 19 19 19 20 20 20
24 24 24 24 24 23 23 23 23 23 23 23 23 23 23 23 23 23 23 23 23 23 23 22 22 23 23 22 22 22 22 21 21 21 21 20 19 20 20 20 20 20
25 25 24 24 24 24 24 24 23 23 23 23 23 23 23 23 23 23 23 23 23 23 23 23 23 23 23 23 22 22 22 22 21 21 21 21 20 20 20 20 20 20
26 25 25 25 25 24 24 24 24 24 24 24 24 23 23 23 23 23 23 23 23 23 23 23 23 23 23 23 23 22 22 22 22 22 21 21 21 21 20 20 20 20
26 26 26 26 25 25 25 25 25 25 24 24 24 24 23 23 23 23 23 23 23 23 23 23 23 23 23 23 23 23 22 22 22 22 21 21 21 21 21 21 21 21
27 26 26 26 26 25 25 25 25 25 25 25 25 24 24 24 23 23 23 23 23 23 23 23 23 23 23 23 23 23 23 22 22 22 22 21 21 21 21 21 21 21
27 27 26 26 26 26 25 25 25 25 25 25 25 25 24 24 24 24 23 23 23 23 23 23 23 23 23 23 23 23 23 22 22 22 22 21 21 21 21 21 21 21
28 28 28 27 27 26 26 26 26 25 25 25 25 25 25 24 24 24 24 23 23 23 23 23 23 23 23 23 23 23 23 22 22 22 22 22 21 21 21 21 21 21
29 28 28 28 27 27 27 26 26 26 26 25 25 25 25 25 24 24 24 24 23 23 23 23 23 23 23 23 23 23 23 23 22 22 22 22 22 21 21 21 21 21
29 29 28 27 27 27 27 27 26 26 26 25 25 26 26 25 25 25 24 24 24 24 23 23 23 22 23 23 23 23 23 23 23 22 22 22 22 21 21 21 21 21
29 29 28 28 27 27 27 27 26 26 26 25 25 26 26 26 25 25 25 24 24 24 24 23 23 23 23 23 23 23 23 23 23 23 22 22 22 21 21 21 21 21
28 29 28 28 27 27 27 27 26 26 26 25 25 25 26 26 25 25 25 24 24 24 24 24 24 23 23 23 23 23 23 23 23 23 23 22 22 22 22 21 22 22
28 28 28 28 27 27 27 26 26 26 26 26 25 25 25 26 25 25 25 25 24 24 24 24 24 24 23 23 23 23 23 23 23 23 23 22 22 22 22 22 22 22
27 27 27 27 27 27 26 26 26 26 26 26 25 25 25 25 25 25 25 25 24 24 24 24 24 24 24 24 23 23 23 22 22 22 22 22 22 22 22 22 22 21
27 27 27 27 26 26 25 25 25 25 25 25 25 25 25 25 24 25 25 25 25 24 24 24 24 24 24 24 24 23 23 23 22 22 22 22 22 22 22 22 22 22
27 27 27 26 26 25 25 25 25 25 25 25 24 24 24 25 24 24 25 25 25 24 24 24 24 24 24 24 24 24 23 23 22 22 22 22 22 22 22 22 22 21
28 27 27 26 25 25 25 25 25 25 25 25 25 24 24 24 25 25 25 25 24 23 23 24 24 24 24 24 24 24 24 23 23 22 22 22 23 23 22 22 21 21
26 26 26 25 25 25 25 26 26 26 26 25 25 24 24 24 25 25 25 25 24 23 24 25 24 23 24 24 24 24 24 23 23 23 23 23 23 23 22 22 22 21
26 26 27 26 26 26 26 27 26 26 25 25 25 24 24 24 24 24 24 24 24 24 25 25 24 23 24 25 24 24 25 24 23 23 23 23 23 23 22 21 21 21
27 27 27 27 27 27 27 26 26 26 25 25 25 25 24 24 23 23 23 23 23 23 23 23 23 23 23 24 24 24 24 24 24 23 23 23 23 23 22 20 20 20
27 27 27 27 26 26 26 26 26 25 25 24 24 24 24 23 23 23 23 22 22 22 22 22 22 22 22 23 23 23 23 23 23 23 24 24 24 23 22 20 18 19
Height
1530 1532 1533 1535 1537 1539 1541 1543 1544 1546 1548 1550 1551 1553 1555 1556 1557 1559 1559 1560 1562 1563 1564 1565 1566 1568 1569 1570 1571 1572 1573 1574 1574 1574 1573 1574 1575 1575 1576 1577 1578 1579
1526 1528 1530 1532 1534 1536 1537 1539 1541 1543 1545 1547 1548 1550 1552 1553 1555 1556 1557 1558 1559 1561 1562 1563 1564 1565 1567 1568 1569 1570 1571 1572 1572 1572 1572 1572 1573 1574 1574 1575 1576 1577
1522 1524 1526 1528 1530 1532 1534 1536 1538 1540 1542 1543 1545 1547 1548 1550 1552 1553 1554 1555 1556 1558 1559 1560 1561 1563 1564 1565 1566 1567 1569 1569 1570 1570 1570 1571 1572 1572 1573 1574 1574 1575
1518 1520 1522 1524 1526 1529 1531 1533 1535 1536 1538 1540 1541 1543 1545 1546 1548 1549 1551 1552 1553 1555 1556 1557 1559 1560 1561 1562 1563 1564 1566 1567 1568 1568 1568 1569 1570 1570 1571 1572 1572 1573
1513 1516 1518 1520 1523 1525 1527 1529 1531 1533 1535 1536 1538 1539 1541 1542 1544 1545 1547 1548 1550 1551 1553 1554 1555 1557 1558 1559 1561 1562 1563 1564 1565 1565 1566 1567 1568 1568 1569 1570 1570 1571
1509 1511 1514 1517 1519 1522 1523 1525 1527 1529 1531 1533 1534 1536 1537 1538 1540 1542 1543 1545 1546 1548 1549 1550 1552 1554 1555 1556 1558 1559 1560 1561 1562 1563 1564 1565 1566 1566 1567 1568 1568 1568
1504 1507 1510 1513 1515 1517 1519 1521 1523 1525 1527 1529 1531 1532 1533 1535 1536 1538 1539 1541 1543 1544 1546 1547 1548 1550 1552 1553 1554 1556 1557 1558 1559 1560 1561 1562 1563 1564 1565 1565 1566 1566
1500 1502 1506 1509 1511 1513 1515 1517 1519 1521 1523 1525 1527 1528 1529 1531 1532 1534 1536 1537 1539 1540 1542 1543 1545 1547 1548 1549 1551 1552 1554 1555 1556 1557 1558 1560 1560 1561 1562 1563 1563 1564
1495 1498 1501 1504 1506 1508 1510 1512 1514 1516 1519 1520 1522 1524 1525 1527 1529 1530 1532 1533 1535 1536 1538 1540 1541 1543 1545 1546 1547 1549 1550 1552 1552 1554 1555 1556 1557 1558 1560 1560 1561 1561
1490 1493 1496 1498 1501 1503 1505 1508 1511 1512 1514 1516 1518 1520 1521 1523 1525 1527 1528 1529 1531 1533 1534 1536 1538 1540 1541 1543 1544 1545 1547 1548 1549 1551 1552 1553 1554 1555 1556 1557 1558 1559
1485 1488 1490 1493 1496 1498 1501 1504 1507 1508 1509 1511 1513 1515 1517 1519 1521 1523 1524 1525 1527 1529 1530 1532 1534 1536 1538 1539 1540 1542 1544 1545 1546 1547 1549 1550 1551 1552 1553 1554 1555 1555
1479 1482 1485 1488 1491 1494 1497 1500 1502 1504 1505 1506 1508 1511 1513 1515 1516 1518 1520 1521 1523 1525 1527 1529 1530 1532 1534 1536 1537 1538 1540 1542 1543 1544 1546 1547 1548 1548 1549 1550 1551 1552
1473 1477 1480 1483 1486 1488 1492 1494 1497 1499 1500 1502 1504 1506 1508 1510 1512 1514 1515 1517 1520 1522 1524 1525 1527 1528 1530 1532 1534 1535 1536 1538 1539 1540 1542 1543 1544 1545 1546 1547 1548 1549
1468 1472 1475 1478 1481 1484 1487 1489 1491 1494 1495 1497 1500 1501 1503 1506 1507 1509 1511 1514 1516 1518 1520 1521 1523 1524 1525 1527 1530 1531 1532 1534 1535 1537 1538 1539 1541 1541 1542 1543 1544 1545
1463 1467 1470 1474 1476 1479 1481 1484 1486 1489 1491 1493 1494 1496 1499 1501 1503 1506 1507 1509 1511 1513 1515 1517 1518 1519 1520 1522 1525 1526 1528 1529 1531 1533 1534 1536 1537 1538 1538 1539 1541 1541
1459 1462 1465 1468 1471 1473 1476 1479 1481 1484 1486 1488 1489 1491 1494 1496 1499 1501 1502 1504 1506 1508 1509 1511 1512 1513 1515 1517 1519 1521 1523 1525 1527 1529 1531 1532 1533 1534 1534 1535 1537 1538
1455 1458 1461 1463 1465 1468 1471 1474 1477 1479 1481 1483 1485 1487 1489 1491 1493 1496 1497 1499 1500 1502 1504 1505 1506 1507 1509 1512 1514 1517 1519 1521 1523 1525 1527 1528 1529 1529 1530 1532 1533 1535
1451 1454 1456 1458 1461 1463 1466 1469 1472 1474 1476 1478 1480 1482 1484 1486 1488 1490 1492 1494 1495 1496 1497 1498 1500 1502 1504 1506 1509 1512 1515 1517 1519 1521 1522 1524 1525 1525 1526 1528 1529 1531
1448 1450 1452 1454 1456 1459 1462 1465 1467 1469 1471 1473 1475 1478 1480 1481 1483 1485 1487 1489 1489 1490 1491 1493 1494 1496 1499 1502 1504 1507 1510 1513 1515 1516 1518 1519 1520 1521 1522 1523 1525 1526
1444 1446 1448 1450 1453 1456 1459 1461 1463 1465 1467 1469 1472 1473 1475 1476 1478 1480 1481 1483 1484 1485 1486 1488 1489 1491 1493 1496 1499 1501 1504 1508 1510 1512 1513 1514 1515 1516 1517 1518 1520 1521
1439 1441 1444 1447 1450 1453 1455 1456 1459 1461 1463 1465 1467 1469 1470 1472 1473 1474 1476 1477 1479 1480 1482 1482 1484 1486 1487 1490 1493 1495 1498 1502 1504 1506 1507 1508 1509 1510 1511 1512 1514 1515
1434 1437 1440 1443 1445 1448 1449 1452 1454 1455 1457 1460 1462 1464 1466 1467 1468 1469 1470 1472 1474 1476 1476 1477 1478 1480 1481 1483 1486 1489 1492 1495 1497 1499 1500 1501 1502 1503 1504 1505 1507 1508
1431 1434 1436 1439 1441 1443 1445 1446 1448 1450 1452 1455 1457 1459 1460 1461 1463 1464 1465 1467 1469 1471 1471 1471 1473 1474 1475 1477 1480 1483 1486 1488 1490 1492 1494 1494 1495 1496 1497 1498 1500 1501
1428 1430 1433 1435 1437 1438 1440 1442 1444 1446 1448 1450 1452 1454 1455 1457 1458 1460 1461 1462 1463 1465 1465 1466 1468 1469 1470 1472 1475 1477 1480 1481 1483 1486 1488 1489 1490 1490 1491 1492 1493 1494
1424 1427 1429 1430 1432 1434 1436 1438 1440 1442 1444 1446 1447 1449 1451 1452 1454 1455 1456 1457 1458 1460 1461 1463 1464 1465 1466 1468 1470 1472 1474 1476 1478 1480 1481 1482 1484 1484 1486 1487 1488 1489
1421 1423 1424 1426 1429 1431 1433 1436 1437 1439 1441 1442 1443 1445 1447 1448 1449 1450 1451 1452 1454 1456 1457 1458 1459 1460 1461 1461 1463 1466 1469 1472 1473 1474 1475 1476 1477 1478 1479 1480 1482 1483
Wind_Speed
41 40 40 39 39 37 36 35 34 33 32 31 30 29 27 26 26 25 25 24 22 21 21 22 20 19 18 16 14 14 14 14 13 11 11 12 12 12 12 11 11 11
43 41 41 40 40 39 37 37 36 34 33 32 31 29 28 27 27 27 27 26 23 22 22 22 21 20 19 17 16 16 16 16 15 12 12 13 14 14 14 13 13 13
44 42 42 42 40 38 37 36 36 35 33 33 32 31 30 29 29 29 28 28 26 24 24 23 22 21 20 19 18 18 17 17 15 13 12 14 15 15 15 15 15 14
45 43 43 42 39 38 37 36 35 34 33 33 32 32 32 31 30 30 30 30 29 28 27 26 24 23 22 21 20 20 19 18 17 16 13 14 17 16 16 16 16 16
46 45 45 43 40 39 38 37 36 35 33 33 32 32 32 32 32 32 32 32 31 31 30 29 27 25 24 23 22 22 21 20 20 19 16 15 17 18 17 18 18 18
48 48 46 44 42 40 40 39 38 37 35 34 32 32 32 32 33 33 33 33 33 33 32 32 30 27 26 25 24 24 23 21 21 22 20 18 18 19 19 19 19 20
49 48 46 45 43 42 42 40 39 38 37 35 34 33 32 31 32 33 34 34 34 34 34 33 32 29 28 27 26 25 25 23 23 24 22 21 21 21 21 21 20 21
48 48 46 45 44 44 43 41 40 39 38 37 36 35 33 32 32 33 34 34 34 35 35 34 33 31 29 29 28 27 26 25 25 25 23 23 24 24 23 23 22 22
48 48 47 46 46 45 44 42 41 40 39 38 37 36 35 34 33 33 34 35 35 35 36 35 34 33 31 30 30 29 28 27 27 26 24 24 26 25 24 24 24 24
48 48 48 47 47 47 46 44 42 42 40 39 38 38 38 37 35 34 34 35 36 37 37 37 36 34 33 32 32 31 29 29 29 27 26 26 26 26 25 25 25 25
47 47 47 47 47 47 46 45 44 44 43 41 40 40 40 39 37 36 36 36 37 37 38 38 38 36 35 34 34 33 31 30 30 29 28 27 27 27 26 26 26 26
47 46 46 45 45 45 45 44 44 44 44 43 41 40 41 41 40 38 38 38 37 37 38 38 39 38 37 36 35 34 33 32 32 31 29 28 28 28 28 27 28 28
48 47 45 45 44 44 43 43 42 43 44 43 41 40 41 41 41 40 40 39 38 38 38 38 38 39 38 37 36 36 35 34 34 33 31 30 30 29 29 29 29 29
49 47 46 46 46 45 44 44 43 43 43 43 42 41 40 41 41 41 40 39 39 39 39 38 38 39 39 39 39 39 38 37 36 35 33 32 32 31 31 30 30 30
49 47 47 47 47 47 46 45 45 45 44 44 44 43 41 41 41 41 40 40 40 40 40 40 40 41 41 41 40 41 41 39 38 37 35 34 34 33 33 32 31 31
49 47 46 47 48 48 48 46 46 46 46 46 45 44 43 42 41 41 41 41 41 41 41 41 42 42 43 42 42 42 41 41 40 39 37 36 36 35 35 34 33 32
49 47 47 47 47 48 47 47 46 46 46 46 46 45 44 43 42 42 42 42 43 43 43 43 43 44 44 43 43 42 41 41 41 40 38 37 37 38 37 36 35 33
48 47 47 46 47 47 47 46 46 46 47 47 47 46 45 44 44 43 42 43 44 45 45 45 45 44 44 44 43 42 41 40 40 40 39 38 38 38 38 37 36 35
46 46 46 46 47 46 46 46 46 46 47 47 47 46 45 45 46 45 44 44 45 46 47 46 46 45 44 43 43 42 41 39 39 39 39 38 39 39 39 38 37 36
44 45 45 46 46 46 46 47 46 46 47 47 47 47 47 47 47 47 46 45 46 47 47 47 47 47 45 44 43 42 41 39 38 38 37 38 39 40 39 39 38 38
43 43 44 45 46 47 47 47 47 46 47 47 48 48 48 47 48 48 47 46 46 47 48 48 48 48 47 45 43 43 42 39 38 38 39 40 41 41 41 40 39 38
43 43 43 44 46 46 47 47 46 46 46 46 46 47 47 47 48 48 48 48 47 44 45 49 49 48 49 48 45 44 43 40 39 40 41 42 43 42 43 41 38 37
44 44 44 44 45 45 46 45 44 44 44 44 45 46 47 48 48 48 48 48 47 44 45 49 49 48 49 49 47 46 45 43 42 41 41 43 44 44 44 43 42 40
42 42 41 41 42 42 42 42 42 43 44 44 45 45 47 47 47 47 47 47 48 47 47 48 47 46 47 49 49 48 46 45 44 42 42 44 45 45 45 43 42 42
38 38 38 40 40 40 41 42 41 42 42 43 44 44 45 46 46 47 47 47 47 47 46 46 45 44 46 48 49 48 46 46 45 43 44 45 45 47 46 39 36 38
35 36 38 39 39 39 40 40 40 42 42 42 43 43 43 44 45 45 45 45 45 43 43 45 46 45 45 47 49 48 46 46 45 44 45 46 46 48 47 38 31 32
Wind_Direction
228 229 230 232 233 234 234 235 236 237 237 237 237 236 235 235 236 236 238 240 240 240 242 244 246 247 250 249 239 232 232 233 232 227 222 228 229 219 214 213 210 207
228 228 230 232 232 233 234 235 237 237 237 238 239 239 237 236 236 236 238 240 240 240 242 244 246 247 250 253 246 236 232 232 230 225 220 227 233 226 218 214 213 216
229 228 229 231 231 232 233 235 237 237 237 238 238 239 239 237 237 237 237 239 240 240 241 242 244 247 249 251 251 243 236 235 232 226 221 229 235 232 225 218 215 219
229 228 229 231 231 232 234 234 235 236 236 237 237 237 238 238 237 236 237 238 239 240 241 241 242 245 247 249 250 247 238 235 236 230 223 227 234 233 229 224 219 221
229 229 230 232 232 233 235 234 233 234 235 235 236 236 237 236 235 236 236 237 238 238 240 241 240 242 246 247 247 247 240 234 235 234 226 226 232 233 231 228 225 225
230 230 231 233 233 233 235 234 234 234 235 234 235 236 236 236 234 234 235 236 236 236 237 239 239 238 242 244 244 244 241 234 235 237 232 228 231 233 234 233 230 228
230 231 231 232 233 233 234 235 235 235 236 236 236 236 236 236 234 232 233 234 235 235 235 236 237 236 238 242 243 242 240 235 235 238 236 232 233 234 234 235 234 232
231 232 231 231 231 232 233 235 236 236 236 236 237 237 236 236 235 233 232 232 233 234 234 234 235 234 235 239 241 241 240 237 236 237 235 232 234 234 234 235 235 234
232 232 232 231 230 231 232 233 235 236 236 236 236 236 236 235 234 233 232 231 231 233 234 235 235 234 234 236 239 239 239 238 237 237 236 233 234 235 235 235 236 236
232 232 233 232 231 232 232 232 234 236 236 236 235 236 237 236 234 233 233 232 231 232 234 235 235 235 234 235 237 237 238 239 238 238 237 235 235 236 236 236 237 237
233 232 232 233 232 232 232 232 233 235 237 237 236 236 237 238 235 233 234 234 233 233 234 235 236 236 234 235 237 237 236 238 239 239 237 236 236 236 236 237 237 238
235 234 233 233 232 232 232 232 232 234 236 237 237 236 237 238 237 235 234 234 234 234 235 236 237 237 236 236 237 238 236 237 239 239 238 237 237 236 236 237 238 238
236 236 235 235 235 234 233 233 233 234 235 237 237 237 236 237 238 237 236 236 236 236 236 237 238 239 238 237 237 238 237 237 238 239 239 237 237 237 236 237 238 238
238 238 237 237 237 237 236 235 236 236 236 237 238 238 237 237 238 238 237 237 237 237 237 238 239 240 240 238 237 238 238 237 237 238 239 238 238 238 237 238 238 239
240 239 239 238 238 238 238 237 237 238 238 238 239 240 239 239 239 239 239 239 238 238 238 238 239 240 241 239 238 238 238 238 237 237 238 239 239 239 238 238 239 240
239 240 240 239 239 239 239 239 239 239 240 240 240 241 241 240 240 240 240 240 239 238 238 238 238 239 240 240 239 239 238 238 238 238 238 239 240 240 240 239 240 240
238 240 240 240 240 240 240 240 240 240 241 241 242 242 242 242 242 241 241 241 241 240 239 238 238 238 240 240 240 240 240 239 240 239 239 239 241 242 242 241 241 241
238 239 240 241 241 241 241 241 241 241 242 242 243 243 243 243 243 242 241 241 242 242 241 240 239 239 239 241 241 241 241 241 241 242 241 240 241 243 244 243 242 242
239 239 240 241 242 242 242 242 242 242 243 243 244 244 244 244 244 244 242 241 242 243 243 242 242 241 240 240 242 242 242 241 242 243 242 241 242 244 245 245 244 242
240 241 241 242 242 242 242 242 243 244 244 244 245 245 245 245 246 245 244 243 242 243 244 244 244 244 242 240 241 242 242 241 241 242 243 242 242 243 245 247 245 243
240 241 241 241 242 242 242 242 244 245 245 245 245 246 247 247 247 247 246 245 244 245 246 246 246 246 244 242 240 241 241 240 239 240 241 241 242 242 244 245 244 242
238 239 239 239 239 240 241 242 244 245 246 246 245 246 247 248 248 249 248 247 247 246 245 246 246 246 245 243 241 240 240 239 237 236 237 239 239 239 241 241 240 239
237 238 239 239 239 240 242 244 245 247 247 247 246 246 246 247 249 249 249 249 248 245 245 246 246 244 243 243 242 241 239 238 236 234 234 236 237 237 238 239 239 237
238 240 241 241 242 243 245 246 247 248 248 248 248 247 247 247 248 249 250 250 248 247 247 248 245 244 246 245 244 243 241 239 237 234 233 235 236 236 237 237 237 236
240 242 242 243 243 245 245 246 247 248 249 250 250 250 250 249 248 249 250 250 250 249 248 247 246 247 248 248 248 247 245 242 239 235 234 235 235 236 236 234 233 234
242 242 243 243 244 245 246 248 248 249 249 249 250 251 250 249 249 249 249 249 249 248 249 250 250 248 247 250 251 250 248 246 242 238 236 235 235 235 234 231 228 230